Time,TemperatureF,DewpointF,PressureIn,WindDirection,WindDirectionDegrees,WindSpeedMPH,WindSpeedGustMPH,Humidity,HourlyPrecipIn,Conditions,Clouds,dailyrainin,SoftwareType,DateUTC
2013-05-14 00:01:00,74.1,66.4,30.09,NNE,24,0.0,2.0,77,0.00,,,0.00,meteohub,2013-05-14 04:01:00,
2013-05-14 00:02:00,74.1,66.0,30.09,NNE,24,0.0,2.0,76,0.00,,,0.00,meteohub,2013-05-14 04:02:00,
2013-05-14 00:07:00,74.1,66.0,30.08,NNE,24,0.0,2.0,76,0.00,,,0.00,meteohub,2013-05-14 04:07:00,
2013-05-14 00:12:00,74.1,66.0,30.08,NNE,13,0.0,2.0,76,0.00,,,0.00,meteohub,2013-05-14 04:12:00,
2013-05-14 00:17:00,74.1,66.0,30.08,North,5,0.0,2.0,76,0.00,,,0.00,meteohub,2013-05-14 04:17:00,
2013-05-14 00:22:00,74.1,66.0,30.08,North,11,0.0,4.0,76,0.00,,,0.00,meteohub,2013-05-14 04:22:00,
2013-05-14 00:27:00,74.3,66.2,30.09,North,11,0.0,4.0,76,0.00,,,0.00,meteohub,2013-05-14 04:27:00,
2013-05-14 00:32:00,74.5,66.4,30.08,NNW,341,0.0,5.0,76,0.00,,,0.00,meteohub,2013-05-14 04:32:00,
2013-05-14 00:37:00,74.7,66.2,30.08,NNE,24,0.0,5.0,75,0.00,,,0.00,meteohub,2013-05-14 04:37:00,
2013-05-14 00:42:00,74.7,66.2,30.08,North,5,1.0,5.0,75,0.00,,,0.00,meteohub,2013-05-14 04:42:00,
2013-05-14 00:47:00,74.8,66.0,30.08,North,350,1.0,4.0,74,0.00,,,0.00,meteohub,2013-05-14 04:47:00,
2013-05-14 00:52:00,75.0,66.2,30.08,NE,36,2.0,4.0,74,0.00,,,0.00,meteohub,2013-05-14 04:52:00,
2013-05-14 00:57:00,75.2,66.0,30.08,North,0,0.0,4.0,73,0.00,,,0.00,meteohub,2013-05-14 04:57:00,
2013-05-14 01:02:00,75.2,66.0,30.08,NNE,26,0.0,4.0,73,0.00,,,0.00,meteohub,2013-05-14 05:02:00,
2013-05-14 01:07:00,75.2,66.0,30.08,North,5,2.0,5.0,73,0.00,,,0.00,meteohub,2013-05-14 05:07:00,
2013-05-14 01:12:00,75.2,66.0,30.08,North,5,0.0,5.0,73,0.00,,,0.00,meteohub,2013-05-14 05:12:00,
2013-05-14 01:17:00,75.4,66.2,30.08,North,0,0.0,6.0,73,0.00,,,0.00,meteohub,2013-05-14 05:17:00,
2013-05-14 01:22:00,75.2,66.4,30.08,NNE,27,0.0,6.0,74,0.00,,,0.00,meteohub,2013-05-14 05:22:00,
2013-05-14 01:27:00,75.0,65.8,30.08,NE,36,0.0,6.0,73,0.00,,,0.00,meteohub,2013-05-14 05:27:00,
2013-05-14 01:32:00,74.8,66.0,30.07,NNE,12,0.0,4.0,74,0.00,,,0.00,meteohub,2013-05-14 05:32:00,
2013-05-14 01:37:00,74.8,66.0,30.07,NNE,28,0.0,4.0,74,0.00,,,0.00,meteohub,2013-05-14 05:37:00,
2013-05-14 01:42:00,74.7,65.8,30.07,NNE,24,1.0,4.0,74,0.00,,,0.00,meteohub,2013-05-14 05:42:00,
2013-05-14 01:47:00,74.7,65.8,30.07,NNE,22,0.0,4.0,74,0.00,,,0.00,meteohub,2013-05-14 05:47:00,
2013-05-14 01:52:00,74.7,65.8,30.07,NNE,30,0.0,4.0,74,0.00,,,0.00,meteohub,2013-05-14 05:52:00,
2013-05-14 01:57:00,74.8,66.0,30.07,NNE,19,0.0,4.0,74,0.00,,,0.00,meteohub,2013-05-14 05:57:00,
2013-05-14 02:02:00,74.8,65.7,30.07,NNE,32,0.0,4.0,73,0.00,,,0.00,meteohub,2013-05-14 06:02:00,
2013-05-14 02:07:00,74.8,65.7,30.07,NW,325,1.0,4.0,73,0.00,,,0.00,meteohub,2013-05-14 06:07:00,
2013-05-14 02:12:00,74.7,65.5,30.07,North,11,1.0,3.0,73,0.00,,,0.00,meteohub,2013-05-14 06:12:00,
2013-05-14 02:17:00,74.7,65.8,30.07,NNE,32,2.0,4.0,74,0.00,,,0.00,meteohub,2013-05-14 06:17:00,
2013-05-14 02:22:00,74.7,65.8,30.07,NE,55,0.0,4.0,74,0.00,,,0.00,meteohub,2013-05-14 06:22:00,
2013-05-14 02:27:00,74.7,65.8,30.07,NE,55,2.0,4.0,74,0.00,,,0.00,meteohub,2013-05-14 06:27:00,
2013-05-14 02:32:00,74.7,65.8,30.07,North,5,0.0,5.0,74,0.00,,,0.00,meteohub,2013-05-14 06:32:00,
2013-05-14 02:37:00,74.7,66.2,30.07,NNE,16,4.0,5.0,75,0.00,,,0.00,meteohub,2013-05-14 06:37:00,
2013-05-14 02:42:00,74.7,65.8,30.07,SE,134,1.0,6.0,74,0.00,,,0.00,meteohub,2013-05-14 06:42:00,
2013-05-14 02:47:00,74.7,65.8,30.07,North,5,0.0,6.0,74,0.00,,,0.00,meteohub,2013-05-14 06:47:00,
2013-05-14 02:52:00,74.5,65.7,30.07,NNE,30,0.0,6.0,74,0.00,,,0.00,meteohub,2013-05-14 06:52:00,
2013-05-14 02:57:00,74.5,65.7,30.07,NNE,24,0.0,6.0,74,0.00,,,0.00,meteohub,2013-05-14 06:57:00,
2013-05-14 03:02:00,74.5,65.7,30.07,NNW,344,6.0,8.0,74,0.00,,,0.00,meteohub,2013-05-14 07:02:00,
2013-05-14 03:07:00,74.7,65.8,30.07,NNE,32,1.0,9.0,74,0.00,,,0.00,meteohub,2013-05-14 07:07:00,
2013-05-14 03:12:00,74.7,65.5,30.07,NNE,21,2.0,9.0,73,0.00,,,0.00,meteohub,2013-05-14 07:12:00,
2013-05-14 03:17:00,74.7,65.5,30.07,NE,36,0.0,9.0,73,0.00,,,0.00,meteohub,2013-05-14 07:17:00,
2013-05-14 03:22:00,74.5,65.3,30.07,NE,42,1.0,8.0,73,0.00,,,0.00,meteohub,2013-05-14 07:22:00,
2013-05-14 03:27:00,74.3,65.1,30.07,NE,44,0.0,8.0,73,0.00,,,0.00,meteohub,2013-05-14 07:27:00,
2013-05-14 03:32:00,74.3,65.1,30.07,NNE,28,1.0,5.0,73,0.00,,,0.00,meteohub,2013-05-14 07:32:00,
2013-05-14 03:37:00,74.1,64.9,30.07,East,81,2.0,5.0,73,0.00,,,0.00,meteohub,2013-05-14 07:37:00,
2013-05-14 03:42:00,74.3,64.8,30.07,NE,44,0.0,6.0,72,0.00,,,0.00,meteohub,2013-05-14 07:42:00,
2013-05-14 03:47:00,74.5,64.9,30.08,North,0,3.0,7.0,72,0.00,,,0.00,meteohub,2013-05-14 07:47:00,
2013-05-14 03:52:00,74.5,64.9,30.07,NNE,18,0.0,7.0,72,0.00,,,0.00,meteohub,2013-05-14 07:52:00,
2013-05-14 03:57:00,74.5,64.4,30.08,NNE,30,3.0,7.0,71,0.00,,,0.00,meteohub,2013-05-14 07:57:00,
2013-05-14 04:02:00,74.3,64.2,30.07,NNE,32,1.0,6.0,71,0.00,,,0.00,meteohub,2013-05-14 08:02:00,
2013-05-14 04:07:00,74.3,64.2,30.07,NNW,343,2.0,6.0,71,0.00,,,0.00,meteohub,2013-05-14 08:07:00,
2013-05-14 04:12:00,74.1,63.7,30.07,NE,36,3.0,7.0,70,0.00,,,0.00,meteohub,2013-05-14 08:12:00,
2013-05-14 04:17:00,74.1,64.0,30.07,NNE,27,2.0,7.0,71,0.00,,,0.00,meteohub,2013-05-14 08:17:00,
2013-05-14 04:22:00,74.1,64.0,30.07,North,355,1.0,9.0,71,0.00,,,0.00,meteohub,2013-05-14 08:22:00,
2013-05-14 04:27:00,74.1,64.0,30.07,North,5,0.0,9.0,71,0.00,,,0.00,meteohub,2013-05-14 08:27:00,
2013-05-14 04:32:00,74.1,63.7,30.07,NNE,13,1.0,9.0,70,0.00,,,0.00,meteohub,2013-05-14 08:32:00,
2013-05-14 04:37:00,73.9,63.1,30.08,North,10,0.0,8.0,69,0.00,,,0.00,meteohub,2013-05-14 08:37:00,
2013-05-14 04:42:00,73.9,63.5,30.08,NNE,24,0.0,8.0,70,0.00,,,0.00,meteohub,2013-05-14 08:42:00,
2013-05-14 04:47:00,73.9,63.1,30.08,NNE,18,1.0,8.0,69,0.00,,,0.00,meteohub,2013-05-14 08:47:00,
2013-05-14 04:52:00,73.9,63.1,30.08,NNE,18,0.0,8.0,69,0.00,,,0.00,meteohub,2013-05-14 08:52:00,
2013-05-14 04:57:00,73.8,62.6,30.08,NE,41,2.0,6.0,68,0.00,,,0.00,meteohub,2013-05-14 08:57:00,
2013-05-14 05:02:00,73.8,63.0,30.08,NNE,32,0.0,6.0,69,0.00,,,0.00,meteohub,2013-05-14 09:02:00,
2013-05-14 05:07:00,73.8,63.3,30.08,North,9,0.0,9.0,70,0.00,,,0.00,meteohub,2013-05-14 09:07:00,
2013-05-14 05:12:00,73.6,62.8,30.08,NE,44,4.0,9.0,69,0.00,,,0.00,meteohub,2013-05-14 09:12:00,
2013-05-14 05:17:00,73.6,62.8,30.08,NNE,17,0.0,9.0,69,0.00,,,0.00,meteohub,2013-05-14 09:17:00,
2013-05-14 05:22:00,73.4,62.6,30.08,North,9,1.0,6.0,69,0.00,,,0.00,meteohub,2013-05-14 09:22:00,
2013-05-14 05:27:00,73.2,62.1,30.09,NNW,341,1.0,6.0,68,0.00,,,0.00,meteohub,2013-05-14 09:27:00,
2013-05-14 05:32:00,73.2,62.4,30.09,NNE,13,0.0,8.0,69,0.00,,,0.00,meteohub,2013-05-14 09:32:00,
2013-05-14 05:37:00,73.0,62.2,30.09,NE,34,0.0,8.0,69,0.00,,,0.00,meteohub,2013-05-14 09:37:00,
2013-05-14 05:42:00,73.0,62.2,30.09,North,5,0.0,8.0,69,0.00,,,0.00,meteohub,2013-05-14 09:42:00,
2013-05-14 05:47:00,73.0,62.2,30.09,NE,53,0.0,5.0,69,0.00,,,0.00,meteohub,2013-05-14 09:47:00,
2013-05-14 05:52:00,73.0,61.9,30.09,NE,35,5.0,5.0,68,0.00,,,0.00,meteohub,2013-05-14 09:52:00,
2013-05-14 05:57:00,73.0,61.9,30.09,ENE,63,0.0,7.0,68,0.00,,,0.00,meteohub,2013-05-14 09:57:00,
2013-05-14 06:02:00,73.2,62.1,30.09,NNE,28,4.0,9.0,68,0.00,,,0.00,meteohub,2013-05-14 10:02:00,
2013-05-14 06:07:00,73.0,61.5,30.09,NE,48,0.0,9.0,67,0.00,,,0.00,meteohub,2013-05-14 10:07:00,
2013-05-14 06:12:00,73.0,61.9,30.10,NE,38,1.0,9.0,68,0.00,,,0.00,meteohub,2013-05-14 10:12:00,
2013-05-14 06:17:00,72.9,61.3,30.10,NE,45,0.0,6.0,67,0.00,,,0.00,meteohub,2013-05-14 10:17:00,
2013-05-14 06:22:00,72.9,61.7,30.10,NE,40,2.0,5.0,68,0.00,,,0.00,meteohub,2013-05-14 10:22:00,
2013-05-14 06:27:00,72.7,61.2,30.10,North,355,0.0,7.0,67,0.00,,,0.00,meteohub,2013-05-14 10:27:00,
2013-05-14 06:32:00,72.7,61.2,30.10,NNE,24,3.0,8.0,67,0.00,,,0.00,meteohub,2013-05-14 10:32:00,
2013-05-14 06:37:00,72.7,61.2,30.10,NNE,28,1.0,8.0,67,0.00,,,0.00,meteohub,2013-05-14 10:37:00,
2013-05-14 06:42:00,72.7,61.2,30.10,ENE,72,0.0,8.0,67,0.00,,,0.00,meteohub,2013-05-14 10:42:00,
2013-05-14 06:47:00,72.7,61.2,30.11,NNE,24,1.0,7.0,67,0.00,,,0.00,meteohub,2013-05-14 10:47:00,
2013-05-14 06:52:00,72.7,61.2,30.11,NNE,27,0.0,7.0,67,0.00,,,0.00,meteohub,2013-05-14 10:52:00,
2013-05-14 06:57:00,72.5,61.0,30.11,NNE,28,0.0,7.0,67,0.00,,,0.00,meteohub,2013-05-14 10:57:00,
2013-05-14 07:02:00,72.7,61.2,30.11,NE,40,1.0,11.0,67,0.00,,,0.00,meteohub,2013-05-14 11:02:00,
2013-05-14 07:07:00,72.7,61.5,30.11,NNW,340,0.0,11.0,68,0.00,,,0.00,meteohub,2013-05-14 11:07:00,
2013-05-14 07:12:00,72.7,61.5,30.11,NE,42,3.0,11.0,68,0.00,,,0.00,meteohub,2013-05-14 11:12:00,
2013-05-14 07:17:00,72.7,61.5,30.11,NNE,30,3.0,6.0,68,0.00,,,0.00,meteohub,2013-05-14 11:17:00,
2013-05-14 07:22:00,72.9,61.3,30.12,NNE,19,2.0,10.0,67,0.00,,,0.00,meteohub,2013-05-14 11:22:00,
2013-05-14 07:27:00,73.2,62.1,30.12,NNE,18,3.0,10.0,68,0.00,,,0.00,meteohub,2013-05-14 11:27:00,
2013-05-14 07:32:00,73.2,61.5,30.12,NE,56,0.0,10.0,67,0.00,,,0.00,meteohub,2013-05-14 11:32:00,
2013-05-14 07:37:00,73.6,62.4,30.12,NE,40,2.0,6.0,68,0.00,,,0.00,meteohub,2013-05-14 11:37:00,
2013-05-14 07:42:00,73.9,62.2,30.12,NNE,30,5.0,8.0,67,0.00,,,0.00,meteohub,2013-05-14 11:42:00,
2013-05-14 07:47:00,74.3,62.2,30.12,SE,132,1.0,8.0,66,0.00,,,0.00,meteohub,2013-05-14 11:47:00,
2013-05-14 07:52:00,74.7,62.1,30.12,East,94,0.0,8.0,65,0.00,,,0.00,meteohub,2013-05-14 11:52:00,
2013-05-14 07:57:00,75.0,62.1,30.12,NNE,14,2.0,8.0,64,0.00,,,0.00,meteohub,2013-05-14 11:57:00,
2013-05-14 08:02:00,75.0,62.1,30.13,NNE,32,6.0,9.0,64,0.00,,,0.00,meteohub,2013-05-14 12:02:00,
2013-05-14 08:07:00,75.4,61.9,30.13,NE,42,4.0,9.0,63,0.00,,,0.00,meteohub,2013-05-14 12:07:00,
2013-05-14 08:12:00,75.4,61.5,30.13,NNE,17,2.0,9.0,62,0.00,,,0.00,meteohub,2013-05-14 12:12:00,
2013-05-14 08:17:00,75.7,61.9,30.13,NE,36,0.0,8.0,62,0.00,,,0.00,meteohub,2013-05-14 12:17:00,
2013-05-14 08:22:00,75.9,62.4,30.14,ENE,57,0.0,8.0,63,0.00,,,0.00,meteohub,2013-05-14 12:22:00,
2013-05-14 08:27:00,76.1,62.1,30.14,NE,42,7.0,7.0,62,0.00,,,0.00,meteohub,2013-05-14 12:27:00,
2013-05-14 08:32:00,76.1,62.1,30.14,NE,40,0.0,9.0,62,0.00,,,0.00,meteohub,2013-05-14 12:32:00,
2013-05-14 08:37:00,76.3,61.3,30.14,NNE,31,6.0,9.0,60,0.00,,,0.00,meteohub,2013-05-14 12:37:00,
2013-05-14 08:42:00,76.3,61.0,30.14,NNE,30,3.0,9.0,59,0.00,,,0.00,meteohub,2013-05-14 12:42:00,
2013-05-14 08:47:00,76.3,60.4,30.14,NE,39,1.0,8.0,58,0.00,,,0.00,meteohub,2013-05-14 12:47:00,
2013-05-14 08:52:00,76.3,60.4,30.14,NW,313,7.0,8.0,58,0.00,,,0.00,meteohub,2013-05-14 12:52:00,
2013-05-14 08:57:00,76.6,61.2,30.14,North,5,0.0,8.0,59,0.00,,,0.00,meteohub,2013-05-14 12:57:00,
2013-05-14 09:02:00,77.2,62.2,30.15,NNW,348,5.0,7.0,60,0.00,,,0.00,meteohub,2013-05-14 13:02:00,
2013-05-14 09:07:00,77.4,61.3,30.15,NE,37,0.0,10.0,58,0.00,,,0.00,meteohub,2013-05-14 13:07:00,
2013-05-14 09:12:00,77.5,61.5,30.15,SE,125,3.0,10.0,58,0.00,,,0.00,meteohub,2013-05-14 13:12:00,
2013-05-14 09:17:00,77.9,62.4,30.15,ENE,61,0.0,10.0,59,0.00,,,0.00,meteohub,2013-05-14 13:17:00,
2013-05-14 09:22:00,78.4,63.0,30.15,SE,126,0.0,9.0,59,0.00,,,0.00,meteohub,2013-05-14 13:22:00,
2013-05-14 09:27:00,78.6,61.5,30.16,NE,34,2.0,7.0,56,0.00,,,0.00,meteohub,2013-05-14 13:27:00,
2013-05-14 09:32:00,79.0,61.9,30.15,NE,38,3.0,12.0,56,0.00,,,0.00,meteohub,2013-05-14 13:32:00,
2013-05-14 09:37:00,78.8,61.7,30.16,NNE,13,0.0,12.0,56,0.00,,,0.00,meteohub,2013-05-14 13:37:00,
2013-05-14 09:42:00,78.6,61.5,30.16,NW,311,9.0,12.0,56,0.00,,,0.00,meteohub,2013-05-14 13:42:00,
2013-05-14 09:47:00,78.1,61.2,30.16,NNE,14,3.0,11.0,56,0.00,,,0.00,meteohub,2013-05-14 13:47:00,
2013-05-14 09:52:00,78.1,61.5,30.16,North,355,8.0,11.0,57,0.00,,,0.00,meteohub,2013-05-14 13:52:00,
2013-05-14 09:57:00,78.3,61.7,30.16,NNE,15,4.0,10.0,57,0.00,,,0.00,meteohub,2013-05-14 13:57:00,
2013-05-14 10:02:00,78.6,61.5,30.16,NNE,30,2.0,10.0,56,0.00,,,0.00,meteohub,2013-05-14 14:02:00,
2013-05-14 10:07:00,78.8,61.3,30.16,North,355,4.0,8.0,55,0.00,,,0.00,meteohub,2013-05-14 14:07:00,
2013-05-14 10:12:00,78.6,60.6,30.16,NE,34,1.0,12.0,54,0.00,,,0.00,meteohub,2013-05-14 14:12:00,
2013-05-14 10:17:00,79.0,61.5,30.16,NNW,344,4.0,12.0,55,0.00,,,0.00,meteohub,2013-05-14 14:17:00,
2013-05-14 10:22:00,79.3,61.2,30.16,NNE,30,7.0,12.0,54,0.00,,,0.00,meteohub,2013-05-14 14:22:00,
2013-05-14 10:27:00,79.3,61.7,30.16,ENE,61,4.0,11.0,55,0.00,,,0.00,meteohub,2013-05-14 14:27:00,
2013-05-14 10:32:00,79.3,60.8,30.17,ENE,78,3.0,11.0,53,0.00,,,0.00,meteohub,2013-05-14 14:32:00,
2013-05-14 10:37:00,79.3,61.7,30.17,East,88,6.0,11.0,55,0.00,,,0.00,meteohub,2013-05-14 14:37:00,
2013-05-14 10:42:00,79.3,61.2,30.17,NNW,333,1.0,9.0,54,0.00,,,0.00,meteohub,2013-05-14 14:42:00,
2013-05-14 10:47:00,79.5,61.9,30.17,North,5,5.0,9.0,55,0.00,,,0.00,meteohub,2013-05-14 14:47:00,
2013-05-14 10:52:00,79.2,61.2,30.17,NNE,24,2.0,11.0,54,0.00,,,0.00,meteohub,2013-05-14 14:52:00,
2013-05-14 10:57:00,79.2,61.2,30.17,East,92,6.0,11.0,54,0.00,,,0.00,meteohub,2013-05-14 14:57:00,
2013-05-14 11:02:00,79.3,61.2,30.17,NE,38,0.0,12.0,54,0.00,,,0.00,meteohub,2013-05-14 15:02:00,
2013-05-14 11:07:00,79.5,60.8,30.17,North,5,3.0,12.0,53,0.00,,,0.00,meteohub,2013-05-14 15:07:00,
2013-05-14 11:12:00,79.5,60.8,30.17,NNE,33,0.0,12.0,53,0.00,,,0.00,meteohub,2013-05-14 15:12:00,
2013-05-14 11:17:00,79.7,61.0,30.17,NE,36,0.0,11.0,53,0.00,,,0.00,meteohub,2013-05-14 15:17:00,
2013-05-14 11:22:00,80.1,60.3,30.17,NNE,13,2.0,11.0,51,0.00,,,0.00,meteohub,2013-05-14 15:22:00,
2013-05-14 11:27:00,80.4,60.1,30.18,NNE,22,0.0,11.0,50,0.00,,,0.00,meteohub,2013-05-14 15:27:00,
2013-05-14 11:32:00,80.6,61.9,30.18,East,96,1.0,9.0,53,0.00,,,0.00,meteohub,2013-05-14 15:32:00,
2013-05-14 11:37:00,81.0,61.7,30.18,NNE,31,5.0,9.0,52,0.00,,,0.00,meteohub,2013-05-14 15:37:00,
2013-05-14 11:42:00,81.0,60.6,30.18,ENE,61,2.0,9.0,50,0.00,,,0.00,meteohub,2013-05-14 15:42:00,
2013-05-14 11:47:00,81.1,61.3,30.17,East,94,3.0,9.0,51,0.00,,,0.00,meteohub,2013-05-14 15:47:00,
2013-05-14 11:52:00,81.1,61.3,30.18,NE,35,2.0,9.0,51,0.00,,,0.00,meteohub,2013-05-14 15:52:00,
2013-05-14 11:57:00,80.8,61.0,30.18,NE,39,1.0,9.0,51,0.00,,,0.00,meteohub,2013-05-14 15:57:00,
2013-05-14 12:02:00,80.6,60.8,30.18,East,96,6.0,9.0,51,0.00,,,0.00,meteohub,2013-05-14 16:02:00,
2013-05-14 12:07:00,80.2,59.9,30.17,NNE,15,0.0,10.0,50,0.00,,,0.00,meteohub,2013-05-14 16:07:00,
2013-05-14 12:12:00,80.4,60.6,30.17,NE,42,1.0,10.0,51,0.00,,,0.00,meteohub,2013-05-14 16:12:00,
2013-05-14 12:17:00,80.1,61.3,30.17,NE,35,3.0,10.0,53,0.00,,,0.00,meteohub,2013-05-14 16:17:00,
2013-05-14 12:22:00,80.2,61.0,30.17,NNE,27,3.0,10.0,52,0.00,,,0.00,meteohub,2013-05-14 16:22:00,
2013-05-14 12:27:00,80.8,62.1,30.17,East,99,0.0,11.0,53,0.00,,,0.00,meteohub,2013-05-14 16:27:00,
2013-05-14 12:32:00,81.0,61.2,30.17,NE,44,4.0,11.0,51,0.00,,,0.00,meteohub,2013-05-14 16:32:00,
2013-05-14 12:37:00,80.6,60.3,30.17,NNE,15,3.0,11.0,50,0.00,,,0.00,meteohub,2013-05-14 16:37:00,
2013-05-14 12:42:00,80.4,60.1,30.17,North,355,0.0,9.0,50,0.00,,,0.00,meteohub,2013-05-14 16:42:00,
2013-05-14 12:47:00,80.4,60.6,30.17,NNE,15,6.0,9.0,51,0.00,,,0.00,meteohub,2013-05-14 16:47:00,
2013-05-14 12:52:00,80.4,60.1,30.17,NE,42,5.0,9.0,50,0.00,,,0.00,meteohub,2013-05-14 16:52:00,
2013-05-14 12:57:00,80.2,61.0,30.17,NNE,29,8.0,9.0,52,0.00,,,0.00,meteohub,2013-05-14 16:57:00,
2013-05-14 13:02:00,80.6,60.8,30.17,East,84,1.0,9.0,51,0.00,,,0.00,meteohub,2013-05-14 17:02:00,
2013-05-14 13:07:00,80.8,60.4,30.17,North,355,3.0,9.0,50,0.00,,,0.00,meteohub,2013-05-14 17:07:00,
2013-05-14 13:12:00,81.1,59.0,30.17,ENE,59,3.0,9.0,47,0.00,,,0.00,meteohub,2013-05-14 17:12:00,
2013-05-14 13:17:00,81.0,59.4,30.17,ESE,105,3.0,10.0,48,0.00,,,0.00,meteohub,2013-05-14 17:17:00,
2013-05-14 13:22:00,81.0,60.1,30.17,NNE,30,3.0,10.0,49,0.00,,,0.00,meteohub,2013-05-14 17:22:00,
2013-05-14 13:27:00,80.8,60.4,30.17,SE,125,0.0,10.0,50,0.00,,,0.00,meteohub,2013-05-14 17:27:00,
2013-05-14 13:32:00,80.6,60.3,30.17,SSE,152,1.0,9.0,50,0.00,,,0.00,meteohub,2013-05-14 17:32:00,
2013-05-14 13:37:00,80.6,60.3,30.17,NE,55,0.0,9.0,50,0.00,,,0.00,meteohub,2013-05-14 17:37:00,
2013-05-14 13:42:00,81.1,60.8,30.17,ESE,102,7.0,9.0,50,0.00,,,0.00,meteohub,2013-05-14 17:42:00,
2013-05-14 13:47:00,81.7,61.2,30.17,East,101,5.0,8.0,50,0.00,,,0.00,meteohub,2013-05-14 17:47:00,
2013-05-14 13:52:00,81.9,61.3,30.17,ESE,121,0.0,8.0,50,0.00,,,0.00,meteohub,2013-05-14 17:52:00,
2013-05-14 13:57:00,82.0,60.4,30.17,NNE,28,2.0,9.0,48,0.00,,,0.00,meteohub,2013-05-14 17:57:00,
2013-05-14 14:02:00,82.0,60.4,30.17,NE,36,2.0,9.0,48,0.00,,,0.00,meteohub,2013-05-14 18:02:00,
2013-05-14 14:07:00,81.9,60.3,30.17,North,11,0.0,9.0,48,0.00,,,0.00,meteohub,2013-05-14 18:07:00,
2013-05-14 14:12:00,82.0,61.0,30.17,NNE,28,3.0,9.0,49,0.00,,,0.00,meteohub,2013-05-14 18:12:00,
2013-05-14 14:17:00,82.6,60.3,30.17,East,96,2.0,8.0,47,0.00,,,0.00,meteohub,2013-05-14 18:17:00,
2013-05-14 14:22:00,82.2,59.9,30.17,NW,312,3.0,8.0,47,0.00,,,0.00,meteohub,2013-05-14 18:22:00,
2013-05-14 14:27:00,81.3,60.3,30.16,NNE,15,2.0,9.0,49,0.00,,,0.00,meteohub,2013-05-14 18:27:00,
2013-05-14 14:32:00,81.1,60.8,30.16,NNE,25,6.0,9.0,50,0.00,,,0.00,meteohub,2013-05-14 18:32:00,
2013-05-14 14:37:00,81.1,60.1,30.16,ESE,115,3.0,9.0,49,0.00,,,0.00,meteohub,2013-05-14 18:37:00,
2013-05-14 14:42:00,80.8,60.4,30.16,SE,126,0.0,9.0,50,0.00,,,0.00,meteohub,2013-05-14 18:42:00,
2013-05-14 14:47:00,81.1,60.8,30.16,ENE,59,0.0,9.0,50,0.00,,,0.00,meteohub,2013-05-14 18:47:00,
2013-05-14 14:52:00,81.3,61.0,30.16,NNE,15,2.0,9.0,50,0.00,,,0.00,meteohub,2013-05-14 18:52:00,
2013-05-14 14:57:00,81.5,62.2,30.15,North,355,2.0,9.0,52,0.00,,,0.00,meteohub,2013-05-14 18:57:00,
2013-05-14 15:02:00,81.7,61.2,30.15,NNW,338,3.0,9.0,50,0.00,,,0.00,meteohub,2013-05-14 19:02:00,
2013-05-14 15:07:00,81.9,61.9,30.15,NE,34,0.0,9.0,51,0.00,,,0.00,meteohub,2013-05-14 19:07:00,
2013-05-14 15:12:00,82.2,61.7,30.15,ENE,77,0.0,9.0,50,0.00,,,0.00,meteohub,2013-05-14 19:12:00,
2013-05-14 15:17:00,82.0,61.0,30.15,NW,317,1.0,9.0,49,0.00,,,0.00,meteohub,2013-05-14 19:17:00,
2013-05-14 15:22:00,82.0,61.5,30.15,SSE,164,1.0,10.0,50,0.00,,,0.00,meteohub,2013-05-14 19:22:00,
2013-05-14 15:27:00,81.3,60.3,30.15,NNE,26,0.0,10.0,49,0.00,,,0.00,meteohub,2013-05-14 19:27:00,
2013-05-14 15:32:00,81.3,60.3,30.14,ESE,105,1.0,10.0,49,0.00,,,0.00,meteohub,2013-05-14 19:32:00,
2013-05-14 15:37:00,81.1,59.0,30.15,SE,127,6.0,8.0,47,0.00,,,0.00,meteohub,2013-05-14 19:37:00,
2013-05-14 15:42:00,81.1,59.5,30.14,NNE,27,1.0,8.0,48,0.00,,,0.00,meteohub,2013-05-14 19:42:00,
2013-05-14 15:48:00,81.9,60.8,30.14,North,10,3.0,8.0,49,0.00,,,0.00,meteohub,2013-05-14 19:48:00,
2013-05-14 15:53:00,81.5,59.9,30.14,NE,43,1.0,8.0,48,0.00,,,0.00,meteohub,2013-05-14 19:53:00,
2013-05-14 15:58:00,80.4,60.1,30.14,NW,313,1.0,8.0,50,0.00,,,0.00,meteohub,2013-05-14 19:58:00,
2013-05-14 16:03:00,79.9,59.5,30.14,NE,41,2.0,8.0,50,0.00,,,0.00,meteohub,2013-05-14 20:03:00,
2013-05-14 16:08:00,79.7,59.9,30.14,ENE,75,1.0,9.0,51,0.00,,,0.00,meteohub,2013-05-14 20:08:00,
2013-05-14 16:13:00,79.3,60.8,30.14,NNE,24,2.0,9.0,53,0.00,,,0.00,meteohub,2013-05-14 20:13:00,
2013-05-14 16:18:00,79.0,60.4,30.14,East,88,6.0,10.0,53,0.00,,,0.00,meteohub,2013-05-14 20:18:00,
2013-05-14 16:23:00,79.0,60.4,30.14,East,96,1.0,10.0,53,0.00,,,0.00,meteohub,2013-05-14 20:23:00,
2013-05-14 16:28:00,79.2,61.2,30.14,NNE,27,1.0,10.0,54,0.00,,,0.00,meteohub,2013-05-14 20:28:00,
2013-05-14 16:33:00,79.5,60.8,30.14,NNE,12,7.0,8.0,53,0.00,,,0.00,meteohub,2013-05-14 20:33:00,
2013-05-14 16:38:00,79.9,61.2,30.14,ENE,76,1.0,9.0,53,0.00,,,0.00,meteohub,2013-05-14 20:38:00,
2013-05-14 16:43:00,79.9,60.6,30.14,NE,34,4.0,9.0,52,0.00,,,0.00,meteohub,2013-05-14 20:43:00,
2013-05-14 16:48:00,79.5,59.7,30.14,East,91,0.0,9.0,51,0.00,,,0.00,meteohub,2013-05-14 20:48:00,
2013-05-14 16:53:00,79.3,60.3,30.14,NNE,33,1.0,9.0,52,0.00,,,0.00,meteohub,2013-05-14 20:53:00,
2013-05-14 16:58:00,79.9,59.0,30.14,NE,37,4.0,9.0,49,0.00,,,0.00,meteohub,2013-05-14 20:58:00,
2013-05-14 17:03:00,79.5,58.6,30.14,NNW,346,0.0,9.0,49,0.00,,,0.00,meteohub,2013-05-14 21:03:00,
2013-05-14 17:08:00,79.7,58.8,30.14,NNE,28,0.0,8.0,49,0.00,,,0.00,meteohub,2013-05-14 21:08:00,
2013-05-14 17:13:00,79.7,58.8,30.14,NNE,19,0.0,8.0,49,0.00,,,0.00,meteohub,2013-05-14 21:13:00,
2013-05-14 17:18:00,79.5,58.6,30.14,NNE,30,4.0,8.0,49,0.00,,,0.00,meteohub,2013-05-14 21:18:00,
2013-05-14 17:23:00,79.7,59.4,30.14,East,86,3.0,8.0,50,0.00,,,0.00,meteohub,2013-05-14 21:23:00,
2013-05-14 17:28:00,79.3,59.7,30.14,East,90,1.0,8.0,51,0.00,,,0.00,meteohub,2013-05-14 21:28:00,
2013-05-14 17:33:00,79.2,60.1,30.13,East,80,3.0,8.0,52,0.00,,,0.00,meteohub,2013-05-14 21:33:00,
2013-05-14 17:38:00,78.8,60.3,30.13,NNE,14,1.0,8.0,53,0.00,,,0.00,meteohub,2013-05-14 21:38:00,
2013-05-14 17:43:00,79.0,59.9,30.13,NNE,30,5.0,7.0,52,0.00,,,0.00,meteohub,2013-05-14 21:43:00,
2013-05-14 17:48:00,78.6,59.5,30.13,East,95,1.0,8.0,52,0.00,,,0.00,meteohub,2013-05-14 21:48:00,
2013-05-14 17:53:00,78.3,59.2,30.14,East,98,3.0,8.0,52,0.00,,,0.00,meteohub,2013-05-14 21:53:00,
2013-05-14 17:58:00,77.7,58.6,30.13,NW,315,1.0,8.0,52,0.00,,,0.00,meteohub,2013-05-14 21:58:00,
2013-05-14 18:03:00,77.5,58.5,30.14,North,355,1.0,7.0,52,0.00,,,0.00,meteohub,2013-05-14 22:03:00,
2013-05-14 18:08:00,77.5,58.5,30.13,NE,46,2.0,8.0,52,0.00,,,0.00,meteohub,2013-05-14 22:08:00,
2013-05-14 18:13:00,77.5,59.0,30.13,NNE,27,0.0,8.0,53,0.00,,,0.00,meteohub,2013-05-14 22:13:00,
2013-05-14 18:18:00,77.2,58.6,30.13,NNE,17,1.0,8.0,53,0.00,,,0.00,meteohub,2013-05-14 22:18:00,
2013-05-14 18:23:00,77.2,58.6,30.13,NNE,17,2.0,7.0,53,0.00,,,0.00,meteohub,2013-05-14 22:23:00,
2013-05-14 18:28:00,77.4,58.3,30.13,East,80,0.0,7.0,52,0.00,,,0.00,meteohub,2013-05-14 22:28:00,
2013-05-14 18:33:00,76.8,57.9,30.13,NNE,17,0.0,7.0,52,0.00,,,0.00,meteohub,2013-05-14 22:33:00,
2013-05-14 18:38:00,76.3,57.9,30.13,NNE,32,0.0,7.0,53,0.00,,,0.00,meteohub,2013-05-14 22:38:00,
2013-05-14 18:43:00,76.3,57.9,30.13,NE,45,1.0,6.0,53,0.00,,,0.00,meteohub,2013-05-14 22:43:00,
2013-05-14 18:48:00,76.3,57.4,30.13,NE,36,3.0,6.0,52,0.00,,,0.00,meteohub,2013-05-14 22:48:00,
2013-05-14 18:53:00,76.5,57.6,30.13,NNE,22,0.0,5.0,52,0.00,,,0.00,meteohub,2013-05-14 22:53:00,
2013-05-14 18:58:00,76.6,58.3,30.13,NNE,30,1.0,5.0,53,0.00,,,0.00,meteohub,2013-05-14 22:58:00,
2013-05-14 19:03:00,76.6,58.3,30.13,NE,40,1.0,5.0,53,0.00,,,0.00,meteohub,2013-05-14 23:03:00,
2013-05-14 19:08:00,76.6,59.7,30.13,ENE,59,0.0,6.0,56,0.00,,,0.00,meteohub,2013-05-14 23:08:00,
2013-05-14 19:13:00,76.5,60.1,30.13,NE,54,0.0,6.0,57,0.00,,,0.00,meteohub,2013-05-14 23:13:00,
2013-05-14 19:18:00,75.9,59.2,30.13,East,89,3.0,6.0,56,0.00,,,0.00,meteohub,2013-05-14 23:18:00,
2013-05-14 19:23:00,75.7,59.0,30.14,NE,34,0.0,8.0,56,0.00,,,0.00,meteohub,2013-05-14 23:23:00,
2013-05-14 19:28:00,75.6,58.8,30.14,NNE,23,2.0,8.0,56,0.00,,,0.00,meteohub,2013-05-14 23:28:00,
2013-05-14 19:33:00,75.4,58.6,30.14,NE,44,0.0,8.0,56,0.00,,,0.00,meteohub,2013-05-14 23:33:00,
2013-05-14 19:38:00,75.0,58.3,30.14,NNE,20,0.0,6.0,56,0.00,,,0.00,meteohub,2013-05-14 23:38:00,
2013-05-14 19:43:00,74.8,58.1,30.14,ENE,77,1.0,6.0,56,0.00,,,0.00,meteohub,2013-05-14 23:43:00,
2013-05-14 19:48:00,74.8,58.6,30.13,ESE,119,2.0,6.0,57,0.00,,,0.00,meteohub,2013-05-14 23:48:00,
2013-05-14 19:53:00,74.7,58.5,30.14,NE,37,1.0,6.0,57,0.00,,,0.00,meteohub,2013-05-14 23:53:00,
2013-05-14 19:58:00,74.5,57.7,30.14,NE,53,1.0,7.0,56,0.00,,,0.00,meteohub,2013-05-14 23:58:00,
2013-05-14 20:03:00,74.5,57.7,30.14,NE,51,0.0,7.0,56,0.00,,,0.00,meteohub,2013-05-15 00:03:00,
2013-05-14 20:08:00,74.1,57.9,30.14,NE,49,0.0,7.0,57,0.00,,,0.00,meteohub,2013-05-15 00:08:00,
2013-05-14 20:13:00,73.9,57.7,30.14,ENE,67,0.0,6.0,57,0.00,,,0.00,meteohub,2013-05-15 00:13:00,
2013-05-14 20:18:00,73.8,57.0,30.14,NNE,25,0.0,5.0,56,0.00,,,0.00,meteohub,2013-05-15 00:18:00,
2013-05-14 20:23:00,73.8,57.0,30.14,East,87,2.0,5.0,56,0.00,,,0.00,meteohub,2013-05-15 00:23:00,
2013-05-14 20:28:00,73.8,57.6,30.14,NNE,26,2.0,7.0,57,0.00,,,0.00,meteohub,2013-05-15 00:28:00,
2013-05-14 20:33:00,73.8,57.6,30.14,NE,42,0.0,7.0,57,0.00,,,0.00,meteohub,2013-05-15 00:33:00,
2013-05-14 20:38:00,73.8,57.6,30.14,ENE,78,2.0,7.0,57,0.00,,,0.00,meteohub,2013-05-15 00:38:00,
2013-05-14 20:43:00,73.8,57.6,30.14,NE,38,2.0,8.0,57,0.00,,,0.00,meteohub,2013-05-15 00:43:00,
2013-05-14 20:48:00,73.6,57.4,30.14,NE,34,0.0,8.0,57,0.00,,,0.00,meteohub,2013-05-15 00:48:00,
2013-05-14 20:53:00,73.4,57.2,30.14,NE,51,2.0,8.0,57,0.00,,,0.00,meteohub,2013-05-15 00:53:00,
2013-05-14 20:58:00,73.2,56.7,30.14,ENE,58,0.0,5.0,56,0.00,,,0.00,meteohub,2013-05-15 00:58:00,
2013-05-14 21:03:00,73.2,56.7,30.15,East,82,0.0,5.0,56,0.00,,,0.00,meteohub,2013-05-15 01:03:00,
2013-05-14 21:08:00,73.0,56.8,30.15,East,92,1.0,5.0,57,0.00,,,0.00,meteohub,2013-05-15 01:08:00,
2013-05-14 21:13:00,73.0,56.5,30.15,NE,40,0.0,5.0,56,0.00,,,0.00,meteohub,2013-05-15 01:13:00,
2013-05-14 21:18:00,72.9,56.3,30.15,East,92,1.0,5.0,56,0.00,,,0.00,meteohub,2013-05-15 01:18:00,
2013-05-14 21:23:00,72.9,55.8,30.15,NE,36,0.0,5.0,55,0.00,,,0.00,meteohub,2013-05-15 01:23:00,
2013-05-14 21:28:00,73.0,56.5,30.15,NE,44,0.0,5.0,56,0.00,,,0.00,meteohub,2013-05-15 01:28:00,
2013-05-14 21:33:00,73.2,57.6,30.16,NE,53,0.0,5.0,58,0.00,,,0.00,meteohub,2013-05-15 01:33:00,
2013-05-14 21:38:00,73.2,57.6,30.16,NE,42,0.0,4.0,58,0.00,,,0.00,meteohub,2013-05-15 01:38:00,
2013-05-14 21:43:00,73.2,58.1,30.16,NE,46,0.0,4.0,59,0.00,,,0.00,meteohub,2013-05-15 01:43:00,
2013-05-14 21:48:00,73.2,58.1,30.16,ENE,59,1.0,7.0,59,0.00,,,0.00,meteohub,2013-05-15 01:48:00,
2013-05-14 21:53:00,73.4,58.3,30.16,NE,34,0.0,7.0,59,0.00,,,0.00,meteohub,2013-05-15 01:53:00,
2013-05-14 21:58:00,73.4,58.3,30.17,ENE,77,0.0,7.0,59,0.00,,,0.00,meteohub,2013-05-15 01:58:00,
2013-05-14 22:03:00,73.2,59.0,30.17,East,93,0.0,5.0,61,0.00,,,0.00,meteohub,2013-05-15 02:03:00,
2013-05-14 22:08:00,73.2,58.5,30.17,ENE,75,0.0,4.0,60,0.00,,,0.00,meteohub,2013-05-15 02:08:00,
2013-05-14 22:13:00,73.2,58.1,30.17,ENE,65,0.0,4.0,59,0.00,,,0.00,meteohub,2013-05-15 02:13:00,
2013-05-14 22:18:00,73.2,57.0,30.17,ENE,74,0.0,5.0,57,0.00,,,0.00,meteohub,2013-05-15 02:18:00,
2013-05-14 22:23:00,73.2,57.0,30.17,NNE,32,0.0,6.0,57,0.00,,,0.00,meteohub,2013-05-15 02:23:00,
2013-05-14 22:28:00,73.2,57.6,30.17,NNW,342,0.0,6.0,58,0.00,,,0.00,meteohub,2013-05-15 02:28:00,
2013-05-14 22:33:00,73.2,58.1,30.17,NNE,25,3.0,6.0,59,0.00,,,0.00,meteohub,2013-05-15 02:33:00,
2013-05-14 22:38:00,73.2,58.5,30.17,NNE,33,0.0,6.0,60,0.00,,,0.00,meteohub,2013-05-15 02:38:00,
2013-05-14 22:43:00,73.2,58.5,30.17,NE,41,1.0,4.0,60,0.00,,,0.00,meteohub,2013-05-15 02:43:00,
2013-05-14 22:48:00,73.2,59.0,30.17,NE,34,0.0,4.0,61,0.00,,,0.00,meteohub,2013-05-15 02:48:00,
2013-05-14 22:53:00,73.2,59.4,30.17,NE,46,0.0,5.0,62,0.00,,,0.00,meteohub,2013-05-15 02:53:00,
2013-05-14 22:58:00,73.2,59.4,30.18,NE,34,0.0,7.0,62,0.00,,,0.00,meteohub,2013-05-15 02:58:00,
2013-05-14 23:03:00,73.2,59.4,30.17,NNE,32,2.0,7.0,62,0.00,,,0.00,meteohub,2013-05-15 03:03:00,
2013-05-14 23:08:00,73.2,59.4,30.17,ENE,59,0.0,7.0,62,0.00,,,0.00,meteohub,2013-05-15 03:08:00,
2013-05-14 23:13:00,73.4,59.5,30.17,NNE,28,1.0,8.0,62,0.00,,,0.00,meteohub,2013-05-15 03:13:00,
2013-05-14 23:18:00,73.4,59.5,30.17,NNE,29,1.0,8.0,62,0.00,,,0.00,meteohub,2013-05-15 03:18:00,
2013-05-14 23:23:00,73.2,59.4,30.18,NNE,17,3.0,8.0,62,0.00,,,0.00,meteohub,2013-05-15 03:23:00,
2013-05-14 23:28:00,73.2,59.9,30.17,NE,38,2.0,8.0,63,0.00,,,0.00,meteohub,2013-05-15 03:28:00,
2013-05-14 23:33:00,73.2,59.9,30.18,East,88,0.0,4.0,63,0.00,,,0.00,meteohub,2013-05-15 03:33:00,
2013-05-14 23:38:00,73.0,60.1,30.17,ESE,106,1.0,4.0,64,0.00,,,0.00,meteohub,2013-05-15 03:38:00,
2013-05-14 23:43:00,72.9,59.5,30.18,ENE,57,2.0,4.0,63,0.00,,,0.00,meteohub,2013-05-15 03:43:00,
2013-05-14 23:48:00,72.9,59.9,30.18,NNE,32,0.0,4.0,64,0.00,,,0.00,meteohub,2013-05-15 03:48:00,
2013-05-14 23:53:00,72.9,59.9,30.18,ENE,78,0.0,4.0,64,0.00,,,0.00,meteohub,2013-05-15 03:53:00,
2013-05-14 23:58:00,72.9,59.0,30.18,NE,37,1.0,5.0,62,0.00,,,0.00,meteohub,2013-05-15 03:58:00,